CW2433 Weather Reports


Display with metric or nautical units.
time (UTC)temp
F
wind
direction
speed
MPH
gust
MPH
rain 1hr
in
rain 24hr
in
rain mn
in
humidity
%
barometer
mb
20180219093510 33 338 5.0 12.0 0.02 0.03 0.03 88 1004.6
20180219093014 33 344 6.0 13.0 0.02 0.03 0.03 88 1004.5
20180219092509 33 342 7.0 13.0 0.02 0.03 0.03 88 1004.5
20180219092010 33 349 7.0 12.0 0.02 0.03 0.03 88 1004.5
20180219091010 33 1 6.0 12.0 0.01 0.02 0.02 87 1004.5
20180219090509 33 346 6.0 12.0 0.01 0.02 0.02 87 1004.6
20180219090015 33 3 9.0 14.0 0.01 0.02 0.02 87 1004.5
20180219085509 33 344 8.0 14.0 0.01 0.02 0.02 87 1004.5
20180219085010 33 344 6.0 12.0 0.02 0.02 0.02 87 1004.5
20180219084511 33 15 6.0 12.0 0.01 0.01 0.01 87 1004.5
20180219084009 33 5 6.0 12.0 0.01 0.01 0.01 86 1004.5
20180219083508 33 355 6.0 12.0 0.01 0.01 0.01 86 1004.6
20180219083011 33 11 6.0 12.0 0.01 0.01 0.01 86 1004.5
20180219082508 33 345 6.0 12.0 0.01 0.01 0.01 86 1004.5
20180219082009 33 359 5.0 12.0 0.01 0.01 0.01 86 1004.6
20180219081509 33 357 6.0 12.0 0.01 0.01 0.01 85 1004.7
20180219081009 33 14 7.0 12.0 0.01 0.01 0.01 85 1004.6
20180219080508 33 342 6.0 12.0 0.01 0.01 0.01 85 1004.5
20180219080010 33 351 7.0 12.0 0.01 0.01 0.01 85 1004.7
20180219075509 33 355 6.0 12.0 0.01 0.01 0.01 85 1004.7
20180219075009 33 340 6.0 12.0 0.00 0.00 0.00 84 1004.8
20180219074509 33 355 6.0 12.0 0.00 0.00 0.00 84 1004.9
20180219074009 33 22 4.0 10.0 0.00 0.00 0.00 84 1004.9
20180219073509 33 13 5.0 12.0 0.00 0.00 0.00 83 1004.9
20180219073011 33 349 7.0 12.0 0.00 0.00 0.00 83 1004.9
20180219072509 33 333 5.0 12.0 0.00 0.00 0.00 83 1004.9
20180219072009 33 358 7.0 12.0 0.00 0.00 0.00 82 1004.9
20180219071511 34 355 6.0 12.0 0.00 0.00 0.00 82 1004.9
20180219071009 34 338 6.0 12.0 0.00 0.00 0.00 82 1004.9
20180219070509 34 344 6.0 14.0 0.00 0.00 0.00 81 1004.9
20180219070010 34 28 5.0 14.0 0.00 0.00 0.00 81 1005.0
20180219065509 34 8 9.0 14.0 0.00 0.00 0.00 80 1005.0
20180219065009 34 1 8.0 14.0 0.00 0.00 0.00 79 1005.1
20180219064511 34 0 8.0 13.0 0.00 0.00 0.00 79 1005.3
20180219064009 34 349 8.0 13.0 0.00 0.00 0.00 79 1005.4
20180219063509 34 336 7.0 13.0 0.00 0.00 0.00 78 1005.4
20180219063015 35 339 7.0 14.0 0.00 0.00 0.00 78 1005.4
20180219062512 35 343 9.0 14.0 0.00 0.00 0.00 77 1005.4
20180219062010 35 34 7.0 14.0 0.00 0.00 0.00 77 1005.4
20180219061510 35 0 8.0 14.0 0.00 0.00 0.00 77 1005.5
20180219061009 35 2 6.0 13.0 0.00 0.00 0.00 76 1005.5
20180219060509 36 12 7.0 14.0 0.00 0.00 0.00 76 1005.5
20180219060011 36 353 8.0 14.0 0.00 0.00 0.00 76 1005.6
20180219055513 36 336 7.0 14.0 0.00 0.00 0.00 76 1005.5
20180219055009 36 5 9.0 14.0 0.00 0.00 0.00 76 1005.6
20180219054511 36 1 6.0 13.0 0.00 0.00 0.00 76 1005.6
20180219054009 36 15 6.0 13.0 0.00 0.00 0.00 76 1005.5
20180219053509 36 346 5.0 14.0 0.00 0.00 0.00 75 1005.5
20180219053011 37 340 9.0 14.0 0.00 0.00 0.00 75 1005.5
20180219052509 37 14 9.0 14.0 0.00 0.00 0.00 74 1005.3
20180219052009 37 5 9.0 14.0 0.00 0.00 0.00 74 1005.1
20180219051509 38 0 9.0 16.0 0.00 0.00 0.00 74 1005.1
20180219051009 38 355 12.0 16.0 0.00 0.00 0.00 74 1005.2
20180219050508 39 345 8.0 14.0 0.00 0.00 0.00 73 1005.2
20180219050011 39 41 9.0 15.0 0.00 0.00 0.00 73 1005.2
20180219045509 40 24 10.0 16.0 0.00 0.00 0.00 71 1005.0
20180219045010 40 6 9.0 17.0 0.00 0.00 0.00 71 1004.9
20180219044510 42 17 10.0 17.0 0.00 0.00 0.00 70 1004.9
20180219044009 43 20 10.0 15.0 0.00 0.00 0.00 70 1004.7
20180219043510 45 0 6.0 14.0 0.00 0.00 0.00 72 1004.7
20180219043011 45 344 4.0 7.0 0.00 0.00 0.00 73 1004.7
20180219042509 45 355 4.0 6.0 0.00 0.00 0.00 73 1004.6
20180219042009 45 349 2.0 5.0 0.00 0.00 0.00 72 1004.5
20180219041510 45 238 2.0 3.0 0.00 0.00 0.00 72 1004.4
20180219041010 45 160 0.0 1.0 0.00 0.00 0.00 72 1004.2
20180219040509 45 160 0.0 2.0 0.00 0.00 0.00 72 1004.4
20180219040011 45 160 0.0 3.0 0.00 0.00 0.00 72 1004.4
20180219035509 46 160 2.0 3.0 0.00 0.00 0.00 71 1004.4
20180219035010 46 159 2.0 5.0 0.00 0.00 0.00 72 1004.3
20180219034511 46 157 2.0 6.0 0.00 0.00 0.00 72 1004.4
20180219034010 46 163 2.0 6.0 0.00 0.00 0.00 72 1004.4
20180219033509 46 169 4.0 7.0 0.00 0.00 0.00 72 1004.4
20180219033012 46 165 3.0 10.0 0.00 0.00 0.00 72 1004.3
20180219032509 46 156 6.0 12.0 0.00 0.00 0.00 71 1004.3
20180219032010 46 164 6.0 12.0 0.00 0.00 0.00 71 1004.1
20180219031510 46 170 5.0 10.0 0.00 0.00 0.00 71 1004.1
20180219031010 45 170 4.0 10.0 0.00 0.00 0.00 70 1004.1
20180219030510 45 173 4.0 7.0 0.00 0.00 0.00 70 1004.1
20180219030011 45 165 3.0 6.0 0.00 0.00 0.00 69 1004.4
20180219025509 45 159 3.0 7.0 0.00 0.00 0.00 69 1004.4
20180219025011 45 159 5.0 7.0 0.00 0.00 0.00 68 1004.2
20180219024511 46 159 3.0 7.0 0.00 0.00 0.00 67 1004.2
20180219024009 46 167 3.0 6.0 0.00 0.00 0.00 66 1004.1
20180219023508 46 155 3.0 5.0 0.00 0.00 0.00 66 1004.1
20180219023010 46 153 2.0 3.0 0.00 0.00 0.00 66 1004.1
20180219022508 46 155 2.0 3.0 0.00 0.00 0.00 66 1004.1
20180219022009 46 151 2.0 3.0 0.00 0.00 0.00 65 1004.1
20180219021510 46 150 2.0 3.0 0.00 0.00 0.00 65 1004.1
20180219020508 46 159 2.0 6.0 0.00 0.00 0.00 64 1004.0
20180219020011 46 165 3.0 6.0 0.00 0.00 0.00 64 1004.1
20180219015509 47 164 2.0 5.0 0.00 0.00 0.00 63 1004.1
20180219015009 47 162 2.0 3.0 0.00 0.00 0.00 62 1004.1
20180219014511 47 169 3.0 3.0 0.00 0.00 0.00 62 1004.1
20180219014009 47 156 2.0 3.0 0.00 0.00 0.00 61 1004.0
20180219013509 47 156 1.0 5.0 0.00 0.00 0.00 61 1004.0
20180219013011 47 156 3.0 5.0 0.00 0.00 0.00 60 1004.0
20180219012509 47 165 3.0 6.0 0.00 0.00 0.00 59 1004.1
20180219012009 47 160 3.0 6.0 0.00 0.00 0.00 58 1004.0
20180219011511 47 159 2.0 6.0 0.00 0.00 0.00 57 1003.9
20180219011009 48 161 2.0 6.0 0.00 0.00 0.00 55 1003.9
20180219010510 48 176 3.0 6.0 0.00 0.00 0.00 54 1003.9
20180219010009 48 159 2.0 3.0 0.00 0.00 0.00 52 1004.0
20180219005508 49 160 1.0 3.0 0.00 0.00 0.00 52 1003.8
20180219005009 49 161 2.0 3.0 0.00 0.00 0.00 51 1003.8
20180219004509 50 163 0.0 3.0 0.00 0.00 0.00 51 1003.9
20180219004010 50 163 1.0 3.0 0.00 0.00 0.00 51 1003.6
20180219003508 50 166 2.0 3.0 0.00 0.00 0.00 51 1003.6
20180219003011 51 166 2.0 5.0 0.00 0.00 0.00 50 1003.6
20180219002508 51 167 1.0 5.0 0.00 0.00 0.00 49 1003.5
20180219002010 51 170 3.0 5.0 0.00 0.00 0.00 49 1003.5
20180219001511 52 168 1.0 5.0 0.00 0.00 0.00 48 1003.6
20180219001009 52 169 2.0 5.0 0.00 0.00 0.00 48 1003.5
20180219000513 52 173 3.0 6.0 0.00 0.00 0.00 48 1003.4
20180219000011 53 165 3.0 6.0 0.00 0.00 0.00 47 1003.4
20180218235509 53 168 4.0 6.0 0.00 0.00 0.00 47 1003.3
20180218235010 53 160 3.0 6.0 0.00 0.00 0.00 46 1003.1
20180218234512 54 164 3.0 6.0 0.00 0.00 0.00 46 1003.1
20180218234010 54 173 3.0 7.0 0.00 0.00 0.00 46 1003.0
20180218233510 54 164 3.0 9.0 0.00 0.00 0.00 45 1002.9
20180218233011 54 163 4.0 12.0 0.00 0.00 0.00 45 1003.1
20180218232510 55 164 5.0 12.0 0.00 0.00 0.00 45 1003.0
20180218232010 55 161 6.0 12.0 0.00 0.00 0.00 45 1003.0
20180218231512 55 175 5.0 10.0 0.00 0.00 0.00 45 1003.1
20180218231010 55 182 4.0 10.0 0.00 0.00 0.00 44 1003.2
20180218230509 55 175 5.0 13.0 0.00 0.00 0.00 44 1003.0
20180218230013 55 166 6.0 13.0 0.00 0.00 0.00 44 1003.0
20180218225509 56 162 7.0 17.0 0.00 0.00 0.00 44 1003.0
20180218225010 56 179 7.0 17.0 0.00 0.00 0.00 44 1003.1
20180218224512 56 167 9.0 17.0 0.00 0.00 0.00 44 1003.1
20180218224010 56 179 5.0 14.0 0.00 0.00 0.00 44 1003.0
20180218223510 56 176 7.0 14.0 0.00 0.00 0.00 44 1003.0
20180218223012 56 199 7.0 14.0 0.00 0.00 0.00 44 1002.9
20180218222510 56 179 6.0 14.0 0.00 0.00 0.00 43 1003.0
20180218222010 56 186 6.0 15.0 0.00 0.00 0.00 43 1003.0
20180218221512 56 196 8.0 15.0 0.00 0.00 0.00 43 1002.9
20180218221010 56 195 6.0 15.0 0.00 0.00 0.00 42 1002.9
20180218220510 56 157 7.0 16.0 0.00 0.00 0.00 42 1002.7
20180218220011 56 173 9.0 16.0 0.00 0.00 0.00 41 1002.7
20180218215510 56 188 8.0 15.0 0.00 0.00 0.00 41 1002.8
20180218215010 56 188 6.0 20.0 0.00 0.00 0.00 41 1002.7
20180218214512 56 194 7.0 20.0 0.00 0.00 0.00 41 1002.6
20180218214009 56 172 7.0 20.0 0.00 0.00 0.00 40 1002.5
20180218213509 56 178 7.0 15.0 0.00 0.00 0.00 40 1002.7
20180218213011 56 227 9.0 17.0 0.00 0.00 0.00 40 1002.9
20180218212509 56 200 7.0 17.0 0.00 0.00 0.00 40 1002.9
20180218212009 56 188 10.0 17.0 0.00 0.00 0.00 40 1002.8
20180218211512 56 177 7.0 20.0 0.00 0.00 0.00 40 1002.8
20180218211009 56 190 9.0 20.0 0.00 0.00 0.00 39 1002.6
20180218210510 56 187 9.0 20.0 0.00 0.00 0.00 39 1002.6
20180218210012 56 187 9.0 18.0 0.00 0.00 0.00 38 1002.9
20180218205509 56 192 9.0 26.0 0.00 0.00 0.00 38 1002.9
20180218205009 56 181 13.0 26.0 0.00 0.00 0.00 37 1003.0
20180218204513 56 183 9.0 20.0 0.00 0.00 0.00 37 1003.0
20180218204009 56 179 8.0 23.0 0.00 0.00 0.00 36 1003.0
20180218203509 56 169 8.0 23.0 0.00 0.00 0.00 36 1003.0
20180218203012 56 230 10.0 20.0 0.00 0.00 0.00 35 1003.0
20180218202509 56 184 10.0 20.0 0.00 0.00 0.00 35 1003.2
20180218202009 56 188 11.0 31.0 0.00 0.00 0.00 34 1003.1
20180218201510 57 182 14.0 31.0 0.00 0.00 0.00 33 1003.0
20180218201010 57 176 14.0 30.0 0.00 0.00 0.00 32 1003.3
20180218200509 57 171 14.0 30.0 0.00 0.00 0.00 32 1003.3
20180218200011 57 183 13.0 26.0 0.00 0.00 0.00 32 1003.1
20180218195509 57 188 13.0 32.0 0.00 0.00 0.00 32 1003.5
20180218195010 57 161 12.0 32.0 0.00 0.00 0.00 31 1003.5
20180218194510 57 179 15.0 32.0 0.00 0.00 0.00 30 1003.6
20180218194009 57 180 10.0 23.0 0.00 0.00 0.00 31 1003.8
20180218193510 56 196 8.0 26.0 0.00 0.00 0.00 31 1003.8
20180218193010 56 194 15.0 26.0 0.00 0.00 0.00 30 1003.9
20180218192516 56 212 13.0 26.0 0.00 0.00 0.00 31 1003.9
20180218192009 56 172 13.0 33.0 0.00 0.00 0.00 31 1004.1
20180218191512 55 159 15.0 33.0 0.00 0.00 0.00 30 1004.2
20180218191010 56 184 14.0 28.0 0.00 0.00 0.00 29 1004.5
20180218190509 55 178 14.0 28.0 0.00 0.00 0.00 30 1004.7
20180218190013 55 179 15.0 28.0 0.00 0.00 0.00 29 1005.1
20180218185509 55 171 12.0 38.0 0.00 0.00 0.00 30 1005.2
20180218185010 55 185 17.0 38.0 0.00 0.00 0.00 29 1005.3
20180218184511 55 219 16.0 35.0 0.00 0.00 0.00 30 1005.4
20180218184009 54 185 12.0 29.0 0.00 0.00 0.00 31 1005.5
20180218183510 54 173 14.0 28.0 0.00 0.00 0.00 32 1005.8
20180218183011 54 201 15.0 29.0 0.00 0.00 0.00 33 1005.8
20180218182510 53 177 14.0 29.0 0.00 0.00 0.00 34 1006.1
20180218182010 53 171 13.0 32.0 0.00 0.00 0.00 34 1006.2
20180218181511 53 167 13.0 32.0 0.00 0.00 0.00 35 1006.4
20180218181010 52 182 16.0 30.0 0.00 0.00 0.00 35 1006.6
20180218180510 52 174 12.0 32.0 0.00 0.00 0.00 37 1006.8
20180218180012 52 180 16.0 32.0 0.00 0.00 0.00 37 1006.9
20180218175510 52 176 17.0 26.0 0.00 0.00 0.00 38 1007.0
20180218175010 52 207 12.0 29.0 0.00 0.00 0.00 39 1007.3
20180218174515 51 187 13.0 37.0 0.00 0.00 0.00 39 1007.5
20180218174010 51 156 17.0 37.0 0.00 0.00 0.00 40 1007.5
20180218173510 51 187 16.0 33.0 0.00 0.00 0.00 40 1007.8
20180218173011 51 159 16.0 30.0 0.00 0.00 0.00 42 1007.9
20180218172510 51 191 16.0 31.0 0.00 0.00 0.00 42 1008.1
20180218172009 51 180 15.0 33.0 0.00 0.00 0.00 43 1008.1
20180218171510 51 194 16.0 33.0 0.00 0.00 0.00 44 1008.2
20180218171009 51 186 14.0 33.0 0.00 0.00 0.00 48 1008.7
20180218170509 50 189 16.0 31.0 0.00 0.00 0.00 46 1008.9
20180218170011 50 185 13.0 31.0 0.00 0.00 0.00 48 1009.3
20180218165509 50 180 13.0 29.0 0.00 0.00 0.00 48 1009.3
20180218165009 49 185 13.0 32.0 0.00 0.00 0.00 50 1009.6
20180218164510 49 184 10.0 32.0 0.00 0.00 0.00 50 1009.7
20180218164009 48 173 16.0 28.0 0.00 0.00 0.00 53 1009.5
20180218163509 47 182 16.0 24.0 0.00 0.00 0.00 54 1009.8
20180218163011 46 174 13.0 33.0 0.00 0.00 0.00 56 1009.9
20180218162509 46 185 14.0 33.0 0.00 0.00 0.00 57 1010.0
20180218162009 45 159 10.0 24.0 0.00 0.00 0.00 58 1010.1
20180218161511 45 183 12.0 24.0 0.00 0.00 0.00 59 1010.3
20180218161009 44 179 9.0 21.0 0.00 0.00 0.00 59 1010.6
20180218160509 44 170 10.0 21.0 0.00 0.00 0.00 60 1011.0
20180218160010 43 190 9.0 22.0 0.00 0.00 0.00 60 1011.1
20180218155509 43 184 12.0 22.0 0.00 0.00 0.00 60 1011.1
20180218155009 42 174 11.0 20.0 0.00 0.00 0.00 61 1011.2
20180218154511 42 194 9.0 16.0 0.00 0.00 0.00 61 1011.2
20180218154009 41 176 8.0 15.0 0.00 0.00 0.00 62 1011.2
20180218153509 41 180 7.0 14.0 0.00 0.00 0.00 63 1011.4
20180218153011 40 179 8.0 14.0 0.00 0.00 0.00 63 1011.7
20180218152509 40 181 6.0 15.0 0.00 0.00 0.00 63 1011.8
20180218152009 40 171 9.0 15.0 0.00 0.00 0.00 63 1011.8
20180218151510 39 180 9.0 16.0 0.00 0.00 0.00 63 1011.8
20180218151010 39 155 9.0 18.0 0.00 0.00 0.00 63 1011.8
20180218150509 39 170 9.0 20.0 0.00 0.00 0.00 63 1011.8
20180218150010 39 170 11.0 20.0 0.00 0.00 0.00 63 1011.7
20180218145510 38 172 12.0 17.0 0.00 0.00 0.00 64 1011.7
20180218145011 38 173 11.0 17.0 0.00 0.00 0.00 64 1011.8
20180218144512 38 175 7.0 20.0 0.00 0.00 0.00 64 1011.8
20180218144010 37 150 7.0 20.0 0.00 0.00 0.00 64 1011.9
20180218143510 37 153 9.0 20.0 0.00 0.00 0.00 64 1012.0
20180218143012 37 169 13.0 18.0 0.00 0.00 0.00 64 1012.2
20180218142509 36 158 10.0 18.0 0.00 0.00 0.00 65 1012.4
20180218142009 36 163 7.0 16.0 0.00 0.00 0.00 65 1012.5
20180218141511 36 161 7.0 16.0 0.00 0.00 0.00 65 1012.6
20180218141010 35 160 8.0 15.0 0.00 0.00 0.00 65 1012.8
20180218140510 35 163 8.0 15.0 0.00 0.00 0.00 66 1012.7
20180218140011 35 156 7.0 15.0 0.00 0.00 0.00 66 1012.6
20180218135510 34 159 7.0 15.0 0.00 0.00 0.00 66 1012.8
20180218135010 34 177 7.0 12.0 0.00 0.00 0.00 66 1013.0
20180218134512 34 165 6.0 12.0 0.00 0.00 0.00 66 1013.0
20180218134010 33 119 6.0 12.0 0.00 0.00 0.00 66 1012.9
20180218133510 33 161 5.0 12.0 0.00 0.00 0.00 66 1012.9
20180218133012 33 155 5.0 10.0 0.00 0.00 0.00 66 1013.0
20180218132510 33 134 5.0 10.0 0.00 0.00 0.00 66 1013.2
20180218132010 33 140 4.0 10.0 0.00 0.00 0.00 66 1013.2
20180218131512 33 146 5.0 10.0 0.00 0.00 0.00 66 1013.2
20180218131010 33 141 5.0 7.0 0.00 0.00 0.00 66 1013.3
20180218130510 33 161 4.0 10.0 0.00 0.00 0.00 66 1013.4
20180218130012 33 157 5.0 10.0 0.00 0.00 0.00 66 1013.3
20180218125510 33 151 5.0 10.0 0.00 0.00 0.00 66 1013.4
20180218125009 33 150 5.0 12.0 0.00 0.00 0.00 66 1013.4
20180218124511 32 163 5.0 12.0 0.00 0.00 0.00 66 1013.5
20180218124009 32 155 5.0 10.0 0.00 0.00 0.00 66 1013.8
20180218123509 32 160 6.0 10.0 0.00 0.00 0.00 66 1014.0
20180218123010 33 177 6.0 10.0 0.00 0.00 0.00 66 1014.1
20180218122509 33 169 5.0 10.0 0.00 0.00 0.00 66 1014.3
20180218122009 33 162 5.0 12.0 0.00 0.00 0.00 66 1014.5
20180218121511 33 174 5.0 13.0 0.00 0.00 0.00 66 1014.6
20180218121010 33 146 6.0 13.0 0.00 0.00 0.00 67 1014.8
20180218120509 32 155 6.0 12.0 0.00 0.00 0.00 67 1014.8
20180218120010 32 144 6.0 12.0 0.00 0.00 0.00 67 1014.8
20180218115509 32 146 6.0 12.0 0.00 0.00 0.00 68 1014.8
20180218115009 32 153 7.0 16.0 0.00 0.00 0.00 68 1014.9
20180218114511 32 170 7.0 16.0 0.00 0.00 0.00 69 1014.8
20180218114009 32 166 6.0 14.0 0.00 0.00 0.00 69 1014.9
20180218113509 32 167 6.0 14.0 0.00 0.00 0.00 69 1015.1
20180218113010 32 161 6.0 14.0 0.00 0.00 0.00 70 1015.2
20180218112509 32 165 6.0 18.0 0.00 0.00 0.00 70 1015.3
20180218112009 32 161 9.0 18.0 0.00 0.00 0.00 71 1015.3
20180218111510 32 169 9.0 15.0 0.00 0.00 0.00 71 1015.4
20180218111009 32 172 9.0 13.0 0.00 0.00 0.00 72 1015.6
20180218110509 32 159 7.0 13.0 0.00 0.00 0.00 72 1015.6
20180218110010 31 172 7.0 13.0 0.00 0.00 0.00 72 1015.6
20180218105509 31 176 7.0 12.0 0.00 0.00 0.00 73 1015.6
20180218105010 31 178 6.0 12.0 0.00 0.00 0.00 73 1015.7
20180218104511 31 175 3.0 9.0 0.00 0.00 0.00 73 1015.7
20180218104009 31 171 3.0 10.0 0.00 0.00 0.00 74 1015.8
20180218103510 31 184 5.0 10.0 0.00 0.00 0.00 74 1015.6
20180218103010 31 169 5.0 9.0 0.00 0.00 0.00 74 1015.7
20180218102508 31 176 3.0 12.0 0.00 0.00 0.00 74 1015.7
20180218102009 31 167 6.0 12.0 0.00 0.00 0.00 75 1015.7
20180218101510 31 173 6.0 12.0 0.00 0.00 0.00 75 1015.8
20180218101009 31 161 5.0 12.0 0.00 0.00 0.00 75 1016.2
20180218100508 31 167 5.0 13.0 0.00 0.00 0.00 76 1016.4
20180218100012 31 166 5.0 14.0 0.00 0.00 0.00 76 1016.3
20180218095508 31 168 6.0 14.0 0.00 0.00 0.00 77 1016.6
20180218095010 31 161 9.0 14.0 0.00 0.00 0.00 77 1016.7
20180218094512 31 164 6.0 13.0 0.00 0.00 0.00 77 1016.7
20180218094009 30 171 7.0 14.0 0.00 0.00 0.00 78 1017.0